Regional Weather Roundup
Issued by NWS Albany, NY

Home | Current Version | Previous Version | Text Only | Print | Product List | Glossary On
Versions: 1 2 3 4 5 6 7 8 9 10 11 12 13 14 15 16 17 18 19 20 21 22 23 24 25 26 27 28 29 30 31 32 33 34 35 36 37 38 39 40 41 42 43 44 45 46 47 48 49 50
534
ASUS41 KALY 232310
RWRALY

NEW YORK STATE HOURLY WEATHER ROUNDUP
NATIONAL WEATHER SERVICE ALBANY NY
700 PM EDT WED MAY 23 2018

NOTE: "FAIR" INDICATES FEW OR NO CLOUDS BELOW 12,000 FEET WITH NO
SIGNIFICANT WEATHER AND/OR NO OBSTRUCTIONS TO VISIBILITY.

NYZ032-033-038>043-046>054-057>066-NYZ062>081-082-084-240000-
EAST


CITY           SKY/WX    TMP DP  RH WIND       PRES   REMARKS
ALBANY         FAIR      76  51  41 W20G30    29.94R
GLENS FALLS    FAIR      76  39  26 NW17G38   29.92R
POUGHKEEPSIE   FAIR      80  45  28 NW8       29.92R
NEWBURGH       SUNNY     77  54  44 NW8       29.96R
MONTGOMERY     FAIR      79  48  33 NW8       29.94R
WHITE PLAINS   FAIR      77  53  43 NW6       29.94R
ISLIP          FAIR      79  52  38 NW9       29.92R
NEW YORK CITY  FAIR      78  52  40 NW9       29.93R
CENTRAL PARK   FAIR      79  52  38 W5        29.96S
$$

NYZ005>009-017-018-044>046-055-056-240000-
CENTRAL


CITY           SKY/WX    TMP DP  RH WIND       PRES   REMARKS
FULTON         FAIR      70  48  45 W13G24    30.01S
SYRACUSE       PTSUNNY   72  53  51 W9        30.01S
ROME           SUNNY     70  54  56 W12       30.02R
ELMIRA         FAIR      78  51  38 MISG      30.04R
BINGHAMTON     FAIR      72  49  44 NW10      30.05R
$$

NYZ026>034-041>043-087-240000-
NORTH


CITY           SKY/WX    TMP DP  RH WIND       PRES   REMARKS
WATERTOWN      FAIR      66  51  58 SW7       29.99S
FORT DRUM      NOT AVBL
OGDENSBURG     FAIR      74  34  23 NW9       29.98R
MASSENA        FAIR      73  40  30 NW8       29.97R
SARANAC LAKE   FAIR      67  43  41 W6G21     29.98R
PLATTSBURGH    FAIR      73  32  22 NW15G23   29.93R
$$

NYZ001>004-010>016-019>021-085-240000-
WEST


CITY           SKY/WX    TMP DP  RH WIND       PRES   REMARKS
NIAGARA FALLS  FAIR      66  53  63 S10       30.09S
BUFFALO        PTSUNNY   58  50  75 SW16      30.11S
DUNKIRK        FAIR      61  52  72 SW13      30.14R
JAMESTOWN      FAIR      68  51  54 NW5       30.16R
WELLSVILLE     FAIR      71  46  40 NW15G22   30.14R
ROCHESTER      PTSUNNY   73  57  57 W14G20    30.05S
PENN YAN       FAIR      73  51  46 W9        30.06S
$$

             KEY
       WCI = WIND CHILL INDEX
       VSB = VISIBILITY
       HX  = HEAT INDEX
$$




USA.gov is the U.S. government's official web portal to all federal, state and local government web resources and services.